Wetterdaten: Donnerstag, 05.03.2015
Datum Zeit Temp. A. Feuchte A. Luftdruck Regen Wind Richtung Richtung Sonnenschein ET UV Solar Taupunkt Windchill Windben Empfang
05.03.2015 00:00 1,0 C 72 % 1028,9 hPa 0,0 l/m 0,0 km/h (0 Bft) SW 223 0 min 0,000 mm 0,0 UV-I 0 W/m -3,5 C 1,0 C 0,0 km/h (0 Bft) 0,00 %
05.03.2015 00:15 0,9 C 72 % 1029,3 hPa 0,0 l/m 0,4 km/h (0 Bft) S-SW 195 0 min 0,000 mm 0,0 UV-I 0 W/m -3,6 C 0,9 C 4,0 km/h (1 Bft) 0,00 %
05.03.2015 00:30 0,9 C 72 % 1029,2 hPa 0,0 l/m 0,0 km/h (0 Bft) O 91 0 min 0,000 mm 0,0 UV-I 0 W/m -3,6 C 0,9 C 0,0 km/h (0 Bft) 0,00 %
05.03.2015 00:45 0,6 C 73 % 1029,5 hPa 0,0 l/m 0,0 km/h (0 Bft) SW 219 0 min 0,000 mm 0,0 UV-I 0 W/m -3,7 C 0,6 C 0,0 km/h (0 Bft) 0,00 %
05.03.2015 01:00 0,5 C 73 % 1029,6 hPa 0,0 l/m 0,4 km/h (0 Bft) SW 225 0 min 0,000 mm 0,0 UV-I 0 W/m -3,8 C 0,5 C 4,0 km/h (1 Bft) 0,00 %
05.03.2015 01:15 0,6 C 73 % 1029,9 hPa 0,0 l/m 0,0 km/h (0 Bft) S-SW 201 0 min 0,000 mm 0,0 UV-I 0 W/m -3,7 C 0,6 C 0,0 km/h (0 Bft) 0,00 %
05.03.2015 01:30 0,8 C 72 % 1029,9 hPa 0,0 l/m 0,0 km/h (0 Bft) SW 229 0 min 0,000 mm 0,0 UV-I 0 W/m -3,7 C 0,8 C 0,0 km/h (0 Bft) 0,00 %
05.03.2015 01:45 0,9 C 72 % 1029,9 hPa 0,0 l/m 0,0 km/h (0 Bft) S-SW 208 0 min 0,000 mm 0,0 UV-I 0 W/m -3,6 C 0,9 C 0,0 km/h (0 Bft) 0,00 %
05.03.2015 02:00 0,8 C 72 % 1030,0 hPa 0,0 l/m 0,0 km/h (0 Bft) SW 233 0 min 0,000 mm 0,0 UV-I 0 W/m -3,7 C 0,8 C 0,0 km/h (0 Bft) 0,00 %
05.03.2015 02:15 0,8 C 72 % 1029,9 hPa 0,0 l/m 0,0 km/h (0 Bft) SW 228 0 min 0,000 mm 0,0 UV-I 0 W/m -3,7 C 0,8 C 0,0 km/h (0 Bft) 0,00 %
05.03.2015 02:30 0,9 C 72 % 1029,9 hPa 0,0 l/m 0,0 km/h (0 Bft) SW 230 0 min 0,000 mm 0,0 UV-I 0 W/m -3,6 C 0,9 C 0,0 km/h (0 Bft) 0,00 %
05.03.2015 02:45 0,9 C 72 % 1029,7 hPa 0,0 l/m 0,0 km/h (0 Bft) O-SO 104 0 min 0,000 mm 0,0 UV-I 0 W/m -3,6 C 0,9 C 0,0 km/h (0 Bft) 0,00 %
05.03.2015 03:00 0,8 C 72 % 1029,7 hPa 0,0 l/m 0,4 km/h (0 Bft) SW 222 0 min 0,000 mm 0,0 UV-I 0 W/m -3,7 C 0,8 C 4,0 km/h (1 Bft) 0,00 %
05.03.2015 03:15 0,9 C 72 % 1029,9 hPa 0,0 l/m 0,4 km/h (0 Bft) SW 216 0 min 0,000 mm 0,0 UV-I 0 W/m -3,6 C 0,9 C 4,0 km/h (1 Bft) 0,00 %
05.03.2015 03:30 0,9 C 72 % 1030,0 hPa 0,0 l/m 0,7 km/h (0 Bft) SW 236 0 min 0,000 mm 0,0 UV-I 0 W/m -3,6 C 0,9 C 4,0 km/h (1 Bft) 0,00 %
05.03.2015 03:45 1,0 C 71 % 1029,9 hPa 0,0 l/m 0,0 km/h (0 Bft) SO 143 0 min 0,000 mm 0,0 UV-I 0 W/m -3,7 C 1,0 C 0,0 km/h (0 Bft) 0,00 %
05.03.2015 04:00 1,0 C 71 % 1029,9 hPa 0,0 l/m 0,7 km/h (0 Bft) S 184 0 min 0,000 mm 0,0 UV-I 0 W/m -3,7 C 1,0 C 4,0 km/h (1 Bft) 0,00 %
05.03.2015 04:15 1,0 C 71 % 1029,9 hPa 0,0 l/m 0,4 km/h (0 Bft) W-NW 302 0 min 0,000 mm 0,0 UV-I 0 W/m -3,7 C 1,0 C 4,0 km/h (1 Bft) 0,00 %
05.03.2015 04:30 1,0 C 70 % 1029,9 hPa 0,0 l/m 0,0 km/h (0 Bft) W-SW 252 0 min 0,000 mm 0,0 UV-I 0 W/m -3,8 C 1,0 C 0,0 km/h (0 Bft) 0,00 %
05.03.2015 04:45 0,9 C 70 % 1030,0 hPa 0,0 l/m 0,7 km/h (0 Bft) SW 228 0 min 0,000 mm 0,0 UV-I 0 W/m -3,9 C 0,9 C 4,0 km/h (1 Bft) 0,00 %
05.03.2015 05:00 0,8 C 70 % 1030,0 hPa 0,0 l/m 0,0 km/h (0 Bft) S 184 0 min 0,000 mm 0,0 UV-I 0 W/m -4,0 C 0,8 C 0,0 km/h (0 Bft) 0,00 %
05.03.2015 05:15 0,7 C 69 % 1030,1 hPa 0,0 l/m 3,2 km/h (1 Bft) W-SW 255 0 min 0,000 mm 0,0 UV-I 0 W/m -4,3 C 0,7 C 4,0 km/h (1 Bft) 0,00 %
05.03.2015 05:30 0,9 C 68 % 1030,0 hPa 0,0 l/m 2,9 km/h (1 Bft) W-SW 252 0 min 0,000 mm 0,0 UV-I 0 W/m -4,3 C 0,9 C 4,0 km/h (1 Bft) 0,00 %
05.03.2015 05:45 1,1 C 68 % 1030,3 hPa 0,0 l/m 0,0 km/h (0 Bft) S-SW 211 0 min 0,000 mm 0,0 UV-I 0 W/m -4,1 C 1,1 C 0,0 km/h (0 Bft) 0,00 %
05.03.2015 06:00 1,0 C 68 % 1030,2 hPa 0,0 l/m 0,7 km/h (0 Bft) W-SW 255 0 min 0,000 mm 0,0 UV-I 0 W/m -4,2 C 1,0 C 4,0 km/h (1 Bft) 0,00 %
05.03.2015 06:15 0,9 C 67 % 1030,4 hPa 0,0 l/m 7,9 km/h (2 Bft) W-SW 254 0 min 0,000 mm 0,0 UV-I 0 W/m -4,5 C -0,6 C 11,9 km/h (2 Bft) 0,00 %
05.03.2015 06:30 0,7 C 69 % 1030,7 hPa 0,0 l/m 0,7 km/h (0 Bft) SW 216 0 min 0,000 mm 0,0 UV-I 0 W/m -4,3 C 0,7 C 4,0 km/h (1 Bft) 0,00 %
05.03.2015 06:45 0,8 C 68 % 1031,0 hPa 0,0 l/m 0,4 km/h (0 Bft) S-SW 200 0 min 0,000 mm 0,0 UV-I 0 W/m -4,4 C 0,8 C 4,0 km/h (1 Bft) 0,00 %
05.03.2015 07:00 1,0 C 67 % 1030,6 hPa 0,0 l/m 4,3 km/h (1 Bft) NW 312 0 min 0,000 mm 0,0 UV-I 6 W/m -4,4 C 1,0 C 7,9 km/h (2 Bft) 0,00 %
05.03.2015 07:15 1,1 C 65 % 1030,9 hPa 0,0 l/m 3,2 km/h (1 Bft) SW 225 0 min 0,000 mm 1,0 UV-I 29 W/m -4,7 C 1,1 C 7,9 km/h (2 Bft) 0,00 %
05.03.2015 07:30 1,6 C 64 % 1030,4 hPa 0,0 l/m 4,0 km/h (1 Bft) W-SW 256 0 min 0,000 mm 1,0 UV-I 57 W/m -4,5 C 1,6 C 7,9 km/h (2 Bft) 0,00 %
05.03.2015 07:45 1,6 C 64 % 1030,7 hPa 0,0 l/m 3,2 km/h (1 Bft) W-SW 253 0 min 0,000 mm 1,0 UV-I 57 W/m -4,5 C 1,6 C 4,0 km/h (1 Bft) 0,00 %
05.03.2015 08:00 1,6 C 65 % 1031,1 hPa 0,0 l/m 0,4 km/h (0 Bft) SW 224 0 min 0,000 mm 0,0 UV-I 57 W/m -4,3 C 1,6 C 4,0 km/h (1 Bft) 0,00 %
05.03.2015 08:15 1,7 C 65 % 1031,0 hPa 0,0 l/m 0,0 km/h (0 Bft) W-SW 245 0 min 0,000 mm 1,0 UV-I 67 W/m -4,2 C 1,7 C 0,0 km/h (0 Bft) 0,00 %
05.03.2015 08:30 1,9 C 66 % 1030,6 hPa 0,0 l/m 0,0 km/h (0 Bft) W-SW 245 0 min 0,000 mm 1,0 UV-I 78 W/m -3,8 C 1,9 C 0,0 km/h (0 Bft) 0,00 %
05.03.2015 08:45 2,2 C 68 % 1030,1 hPa 0,0 l/m 1,8 km/h (1 Bft) W-SW 254 0 min 0,000 mm 2,0 UV-I 105 W/m -3,1 C 2,2 C 4,0 km/h (1 Bft) 0,00 %
05.03.2015 09:00 2,4 C 72 % 1030,5 hPa 0,0 l/m 1,4 km/h (1 Bft) SW 229 0 min 0,000 mm 1,0 UV-I 116 W/m -2,1 C 2,4 C 4,0 km/h (1 Bft) 0,00 %
05.03.2015 09:15 2,2 C 69 % 1030,4 hPa 0,0 l/m 0,0 km/h (0 Bft) SO 127 0 min 0,000 mm 2,0 UV-I 102 W/m -2,9 C 2,2 C 0,0 km/h (0 Bft) 0,00 %
05.03.2015 09:30 2,9 C 69 % 1030,5 hPa 0,0 l/m 0,0 km/h (0 Bft) SW 214 0 min 0,000 mm 1,0 UV-I 180 W/m -2,2 C 2,9 C 0,0 km/h (0 Bft) 0,00 %
05.03.2015 09:45 2,5 C 71 % 1031,0 hPa 0,0 l/m 0,0 km/h (0 Bft) N 4 0 min 0,000 mm 1,0 UV-I 124 W/m -2,2 C 2,5 C 0,0 km/h (0 Bft) 0,00 %
05.03.2015 10:00 2,3 C 68 % 1031,3 hPa 0,0 l/m 0,0 km/h (0 Bft) SW 227 0 min 0,000 mm 1,0 UV-I 46 W/m -3,0 C 2,3 C 0,0 km/h (0 Bft) 0,00 %
05.03.2015 10:15 2,1 C 67 % 1031,3 hPa 0,0 l/m 0,0 km/h (0 Bft) W-SW 251 0 min 0,000 mm 1,0 UV-I 47 W/m -3,4 C 2,1 C 0,0 km/h (0 Bft) 0,00 %
05.03.2015 10:30 2,5 C 69 % 1030,7 hPa 0,0 l/m 0,0 km/h (0 Bft) SW 215 0 min 0,000 mm 2,0 UV-I 89 W/m -2,6 C 2,5 C 0,0 km/h (0 Bft) 0,00 %
05.03.2015 10:45 3,0 C 66 % 1030,4 hPa 0,0 l/m 1,4 km/h (1 Bft) W-NW 293 0 min 0,000 mm 2,0 UV-I 171 W/m -2,7 C 3,0 C 4,0 km/h (1 Bft) 0,00 %
05.03.2015 11:00 3,3 C 64 % 1030,6 hPa 0,0 l/m 0,0 km/h (0 Bft) S 176 0 min 0,000 mm 1,0 UV-I 177 W/m -2,8 C 3,3 C 0,0 km/h (0 Bft) 0,00 %
05.03.2015 11:15 3,1 C 67 % 1031,0 hPa 0,0 l/m 0,0 km/h (0 Bft) SW 221 0 min 0,000 mm 1,0 UV-I 98 W/m -2,4 C 3,1 C 0,0 km/h (0 Bft) 0,00 %
05.03.2015 11:30 3,7 C 64 % 1030,0 hPa 0,0 l/m 0,4 km/h (0 Bft) SW 216 0 min 0,000 mm 2,0 UV-I 146 W/m -2,5 C 3,7 C 4,0 km/h (1 Bft) 0,00 %
05.03.2015 11:45 4,2 C 63 % 1030,1 hPa 0,0 l/m 0,4 km/h (0 Bft) S-SW 194 0 min 0,000 mm 2,0 UV-I 239 W/m -2,2 C 4,2 C 4,0 km/h (1 Bft) 0,00 %
05.03.2015 12:00 4,1 C 63 % 1030,6 hPa 0,0 l/m 7,2 km/h (2 Bft) W-NW 289 0 min 0,000 mm 1,0 UV-I 205 W/m -2,3 C 3,4 C 11,9 km/h (2 Bft) 0,00 %
05.03.2015 12:15 3,5 C 64 % 1030,6 hPa 0,0 l/m 0,4 km/h (0 Bft) SW 224 0 min 0,000 mm 1,0 UV-I 115 W/m -2,7 C 3,5 C 4,0 km/h (1 Bft) 0,00 %
05.03.2015 12:30 3,6 C 66 % 1031,0 hPa 0,0 l/m 0,7 km/h (0 Bft) W-SW 253 0 min 0,000 mm 1,0 UV-I 127 W/m -2,1 C 3,6 C 4,0 km/h (1 Bft) 0,00 %
05.03.2015 12:45 3,6 C 67 % 1030,5 hPa 0,0 l/m 0,0 km/h (0 Bft) SW 228 0 min 0,000 mm 1,0 UV-I 107 W/m -1,9 C 3,6 C 0,0 km/h (0 Bft) 0,00 %
05.03.2015 13:00 3,5 C 69 % 1030,6 hPa 0,0 l/m 0,0 km/h (0 Bft) S-SW 213 0 min 0,000 mm 1,0 UV-I 116 W/m -1,6 C 3,5 C 0,0 km/h (0 Bft) 0,00 %
05.03.2015 13:15 3,5 C 68 % 1030,5 hPa 0,0 l/m 0,0 km/h (0 Bft) NW 311 0 min 0,000 mm 1,0 UV-I 120 W/m -1,8 C 3,5 C 0,0 km/h (0 Bft) 0,00 %
05.03.2015 13:30 3,4 C 69 % 1030,8 hPa 0,0 l/m 0,0 km/h (0 Bft) SW 234 0 min 0,000 mm 1,0 UV-I 97 W/m -1,7 C 3,4 C 0,0 km/h (0 Bft) 0,00 %
05.03.2015 13:45 3,5 C 68 % 1030,5 hPa 0,0 l/m 0,0 km/h (0 Bft) S-SW 197 15 min 0,000 mm 1,0 UV-I 310 W/m -1,8 C 3,5 C 0,0 km/h (0 Bft) 0,00 %
05.03.2015 14:00 3,7 C 68 % 1030,1 hPa 0,0 l/m 0,7 km/h (0 Bft) W-NW 290 15 min 0,000 mm 2,0 UV-I 315 W/m -1,6 C 3,7 C 4,0 km/h (1 Bft) 0,00 %
05.03.2015 14:15 3,8 C 67 % 1030,3 hPa 0,0 l/m 0,0 km/h (0 Bft) S-SW 209 15 min 0,000 mm 1,0 UV-I 322 W/m -1,8 C 3,8 C 0,0 km/h (0 Bft) 0,00 %
05.03.2015 14:30 3,9 C 67 % 1030,0 hPa 0,0 l/m 0,0 km/h (0 Bft) SW 216 15 min 0,000 mm 1,0 UV-I 311 W/m -1,7 C 3,9 C 0,0 km/h (0 Bft) 0,00 %
05.03.2015 14:45 4,4 C 64 % 1030,0 hPa 0,0 l/m 1,8 km/h (1 Bft) W-SW 255 0 min 0,000 mm 1,0 UV-I 240 W/m -1,8 C 4,4 C 4,0 km/h (1 Bft) 0,00 %
05.03.2015 15:00 4,6 C 64 % 1029,9 hPa 0,0 l/m 0,0 km/h (0 Bft) SW 216 15 min 0,000 mm 2,0 UV-I 235 W/m -1,6 C 4,6 C 0,0 km/h (0 Bft) 0,00 %
05.03.2015 15:15 5,0 C 61 % 1029,8 hPa 0,0 l/m 0,0 km/h (0 Bft) SW 221 15 min 0,000 mm 2,0 UV-I 230 W/m -1,9 C 5,0 C 0,0 km/h (0 Bft) 0,00 %
05.03.2015 15:30 4,9 C 64 % 1029,5 hPa 0,0 l/m 0,4 km/h (0 Bft) W-SW 256 15 min 0,000 mm 1,0 UV-I 245 W/m -1,3 C 4,9 C 4,0 km/h (1 Bft) 0,00 %
05.03.2015 15:45 5,5 C 61 % 1029,9 hPa 0,0 l/m 0,0 km/h (0 Bft) S-SW 206 15 min 0,000 mm 1,0 UV-I 194 W/m -1,4 C 5,5 C 0,0 km/h (0 Bft) 0,00 %
05.03.2015 16:00 5,0 C 63 % 1030,6 hPa 0,0 l/m 1,8 km/h (1 Bft) W-SW 255 0 min 0,000 mm 1,0 UV-I 91 W/m -1,4 C 5,0 C 4,0 km/h (1 Bft) 0,00 %
05.03.2015 16:15 4,4 C 66 % 1031,0 hPa 0,0 l/m 0,0 km/h (0 Bft) SW 219 0 min 0,000 mm 1,0 UV-I 88 W/m -1,4 C 4,4 C 0,0 km/h (0 Bft) 0,00 %
05.03.2015 16:30 4,0 C 67 % 1031,2 hPa 0,0 l/m 5,4 km/h (1 Bft) SW 224 0 min 0,000 mm 1,0 UV-I 56 W/m -1,6 C 4,0 C 7,9 km/h (2 Bft) 0,00 %
05.03.2015 16:45 3,8 C 66 % 1031,6 hPa 0,0 l/m 0,0 km/h (0 Bft) W-SW 237 0 min 0,000 mm 0,0 UV-I 31 W/m -2,0 C 3,8 C 0,0 km/h (0 Bft) 0,00 %
05.03.2015 17:00 3,6 C 67 % 1031,7 hPa 0,0 l/m 0,0 km/h (0 Bft) SW 216 0 min 0,000 mm 0,0 UV-I 2 W/m -1,9 C 3,6 C 0,0 km/h (0 Bft) 0,00 %
05.03.2015 17:15 3,5 C 70 % 1032,1 hPa 0,0 l/m 0,0 km/h (0 Bft) SW 216 0 min 0,000 mm 0,0 UV-I 5 W/m -1,4 C 3,5 C 0,0 km/h (0 Bft) 0,00 %
05.03.2015 17:30 3,2 C 72 % 1032,3 hPa 0,0 l/m 0,0 km/h (0 Bft) SW 220 0 min 0,000 mm 0,0 UV-I 8 W/m -1,3 C 3,2 C 0,0 km/h (0 Bft) 0,00 %
05.03.2015 17:45 2,9 C 73 % 1032,6 hPa 0,0 l/m 0,0 km/h (0 Bft) S-SW 210 0 min 0,000 mm 0,0 UV-I 0 W/m -1,5 C 2,9 C 0,0 km/h (0 Bft) 0,00 %
05.03.2015 18:00 2,5 C 74 % 1032,9 hPa 0,0 l/m 0,0 km/h (0 Bft) SW 220 0 min 0,000 mm 0,0 UV-I 0 W/m -1,7 C 2,5 C 0,0 km/h (0 Bft) 0,00 %
05.03.2015 18:15 2,2 C 71 % 1033,2 hPa 0,0 l/m 0,0 km/h (0 Bft) S-SW 207 0 min 0,000 mm 0,0 UV-I 0 W/m -2,5 C 2,2 C 0,0 km/h (0 Bft) 0,00 %
05.03.2015 18:30 1,9 C 73 % 1033,5 hPa 0,0 l/m 0,0 km/h (0 Bft) S 185 0 min 0,000 mm 0,0 UV-I 0 W/m -2,4 C 1,9 C 0,0 km/h (0 Bft) 0,00 %
05.03.2015 18:45 1,6 C 75 % 1033,6 hPa 0,0 l/m 0,0 km/h (0 Bft) S-SW 206 0 min 0,000 mm 0,0 UV-I 0 W/m -2,3 C 1,6 C 0,0 km/h (0 Bft) 0,00 %
05.03.2015 19:00 1,1 C 78 % 1033,9 hPa 0,0 l/m 0,0 km/h (0 Bft) S 180 0 min 0,000 mm 0,0 UV-I 0 W/m -2,3 C 1,1 C 0,0 km/h (0 Bft) 0,00 %
05.03.2015 19:15 0,6 C 79 % 1034,1 hPa 0,0 l/m 0,0 km/h (0 Bft) S-SW 195 0 min 0,000 mm 0,0 UV-I 0 W/m -2,6 C 0,6 C 0,0 km/h (0 Bft) 0,00 %
05.03.2015 19:30 0,3 C 81 % 1034,3 hPa 0,0 l/m 0,0 km/h (0 Bft) SW 215 0 min 0,000 mm 0,0 UV-I 0 W/m -2,6 C 0,3 C 0,0 km/h (0 Bft) 0,00 %
05.03.2015 19:45 0,2 C 82 % 1034,6 hPa 0,0 l/m 0,0 km/h (0 Bft) S-SW 200 0 min 0,000 mm 0,0 UV-I 0 W/m -2,5 C 0,2 C 0,0 km/h (0 Bft) 0,00 %
05.03.2015 20:00 0,3 C 82 % 1034,9 hPa 0,0 l/m 0,0 km/h (0 Bft) S 181 0 min 0,000 mm 0,0 UV-I 0 W/m -2,4 C 0,3 C 0,0 km/h (0 Bft) 0,00 %
05.03.2015 20:15 0,2 C 81 % 1035,0 hPa 0,0 l/m 0,0 km/h (0 Bft) S-SW 208 0 min 0,000 mm 0,0 UV-I 0 W/m -2,7 C 0,2 C 0,0 km/h (0 Bft) 0,00 %
05.03.2015 20:30 0,3 C 81 % 1034,9 hPa 0,0 l/m 0,0 km/h (0 Bft) SW 216 0 min 0,000 mm 0,0 UV-I 0 W/m -2,6 C 0,3 C 0,0 km/h (0 Bft) 0,00 %
05.03.2015 20:45 0,1 C 81 % 1035,2 hPa 0,0 l/m 0,0 km/h (0 Bft) S-SW 203 0 min 0,000 mm 0,0 UV-I 0 W/m -2,8 C 0,1 C 0,0 km/h (0 Bft) 0,00 %
05.03.2015 21:00 0,0 C 81 % 1035,3 hPa 0,0 l/m 0,0 km/h (0 Bft) W-SW 253 0 min 0,000 mm 0,0 UV-I 0 W/m -2,9 C 0,0 C 0,0 km/h (0 Bft) 0,00 %
05.03.2015 21:15 0,0 C 81 % 1035,5 hPa 0,0 l/m 0,0 km/h (0 Bft) S-SW 204 0 min 0,000 mm 0,0 UV-I 0 W/m -2,9 C 0,0 C 0,0 km/h (0 Bft) 0,00 %
05.03.2015 21:30 0,0 C 81 % 1035,6 hPa 0,0 l/m 0,0 km/h (0 Bft) S-SW 192 0 min 0,000 mm 0,0 UV-I 0 W/m -2,9 C 0,0 C 0,0 km/h (0 Bft) 0,00 %
05.03.2015 21:45 0,2 C 80 % 1035,7 hPa 0,0 l/m 0,0 km/h (0 Bft) SW 224 0 min 0,000 mm 0,0 UV-I 0 W/m -2,8 C 0,2 C 0,0 km/h (0 Bft) 0,00 %
05.03.2015 22:00 0,5 C 77 % 1035,5 hPa 0,0 l/m 0,0 km/h (0 Bft) W-SW 253 0 min 0,000 mm 0,0 UV-I 0 W/m -3,1 C 0,5 C 0,0 km/h (0 Bft) 0,00 %
05.03.2015 22:15 0,5 C 74 % 1035,8 hPa 0,0 l/m 0,0 km/h (0 Bft) S-SW 206 0 min 0,000 mm 0,0 UV-I 0 W/m -3,6 C 0,5 C 0,0 km/h (0 Bft) 0,00 %
05.03.2015 22:30 0,2 C 77 % 1035,9 hPa 0,0 l/m 0,0 km/h (0 Bft) S-SW 206 0 min 0,000 mm 0,0 UV-I 0 W/m -3,3 C 0,2 C 0,0 km/h (0 Bft) 0,00 %
05.03.2015 22:45 0,0 C 76 % 1035,9 hPa 0,0 l/m 0,0 km/h (0 Bft) W-SW 238 0 min 0,000 mm 0,0 UV-I 0 W/m -3,7 C 0,0 C 0,0 km/h (0 Bft) 0,00 %
05.03.2015 23:00 -0,2 C 75 % 1035,7 hPa 0,0 l/m 0,0 km/h (0 Bft) S-SW 195 0 min 0,000 mm 0,0 UV-I 0 W/m -4,1 C -0,2 C 0,0 km/h (0 Bft) 0,00 %
05.03.2015 23:15 -0,6 C 78 % 1035,9 hPa 0,0 l/m 0,0 km/h (0 Bft) S 190 0 min 0,000 mm 0,0 UV-I 0 W/m -3,9 C -0,6 C 0,0 km/h (0 Bft) 0,00 %
05.03.2015 23:30 -0,9 C 80 % 1036,0 hPa 0,0 l/m 0,0 km/h (0 Bft) S 188 0 min 0,000 mm 0,0 UV-I 0 W/m -3,9 C -0,9 C 0,0 km/h (0 Bft) 0,00 %
05.03.2015 23:45 -1,1 C 79 % 1036,0 hPa 0,0 l/m 0,0 km/h (0 Bft) SW 216 0 min 0,000 mm 0,0 UV-I 0 W/m -4,3 C -1,1 C 0,0 km/h (0 Bft) 0,00 %
_ Min-Zeit 23:45 15:15 00:00 - 00:00 - - - - - - 07:15 23:45 00:00 00:00
Minimum _ -1,1 C 61 % 1028,9 hPa - 0,0 km/h (0 Bft) - - - - - - -4,7 C -1,1 C 0,0 km/h (0 Bft) 0,00 %
_ Max-Zeit 15:45 19:45 23:30 00:00 06:15 - - 13:45 00:00 08:45 14:15 15:30 15:45 06:15 00:00
Maximum _ 5,5 C 82 % 1036,0 hPa 0,0 l/m 7,9 km/h
W-SW (2 Bft)
- - 15 min 0,000 mm 2,0 UV-I 322 W/m -1,3 C 5,5 C 11,9 km/h
W-SW (2 Bft)
0,00 %
Durchschnitt _ 1,8 C 71 % 1031,6 hPa #0,0 l/m 0,6 km/h (0 Bft) W-SW - #2:00 h #0,000 mm 1,2 UV-I 129 W/m -3,0 C 1,8 C 1,7 km/h (1 Bft) 0,00 %